Погода в Нилово

Россия / Калининградская область     54°23′10″N   21°40′05″E
темп.,
°C
ветер,
м/с
пор.,
м/с
влажн.,
%
обл.,
%
осадки,
мм/ч
давл.,
гПа
погр.,
м
8 мая, сб
сб823:00+2з3897100 0.0 1009210
02:00+2зсз3795100 0.0 1010514
05:00+3з269180 0.1 1012265
08:00+5з34745 0.1 1014602
11:00+9з465684 0.0 10141671
14:00+10зсз476399 0.9 10151720
17:00+8з478178 1.7 1016950
20:00+5зсз35922 2.4 101894
9 мая, вс
вс923:00+2зюз22950 0.0 101933
02:00+1юз34955 0.0 102069
05:00+1ю359443 0.0 102091
08:00+7ю598191 0.0 1020344
11:00+12ю685891 0.0 10191211
14:00+14ююз71058100 0.0 10181765
17:00+12ю6136997 0.0 1017788
20:00+11ю51378100 0.0 1017381
10 мая, пн
пн1023:00+10ю5148176 0.0 1018341
02:00+10ю6157989 0.0 1018340
05:00+9ююв5138597 0.0 1018284
08:00+12ююв61477100 0.0 1019433
11:00+17ююв712657 0.0 1018774
14:00+20ююв7126292 0.0 10171049
17:00+19ююв8136735 0.0 10161041
20:00+16ююв6157557 0.0 1017730
11 мая, вт
вт1123:00+14ююв7177637 0.0 1017570
02:00+13ююв6158012 0.0 1017474
05:00+11юв615837 0.0 1017405
08:00+14юв716775 0.0 1016543
11:00+19ююв814676 0.0 1016833
14:00+21ююв814654 0.0 10151075
17:00+20ююв814660 0.0 10151001
20:00+17ююв716691 0.0 1015770
12 мая, ср
ср1223:00+14юв717710 0.0 1016612
02:00+13ююв7176410 0.0 1016537
05:00+11юв616702 0.0 1015452
08:00+14юв615702 0.0 1016596
11:00+19юв712635 0.0 1015972
14:00+21юв711616 0.0 10141492
17:00+21юв610675 0.0 10141571
20:00+16вюв4108221 0.0 1015294